STARLINK-34772 (65020 NORAD) Tracking and Keplerian Element Data

This shows tracking and keplerian element data for the satellite.

Feedback or suggestion? Click here.




ElementValue
Catalog65020
NameSTARLINK-34772
Epoch Orbit2326
Epoch Day354.15638913
Epoch Year2025
RAAN303.5784
Inclination53.1596
Eccentricity0.0001256
Argument of Perigee89.6219
Mean Anonmoly270.4926
Mean Motion15.30190816
Decay Rate0.00024599
L11 65020U 25161F 25354.15638913 .00024599 00000+0 84015-3 0 9992
L22 65020 53.1596 303.5784 0001256 89.6219 270.4926 15.30190816 23260



Live tracking and technical data element details for STARLINK-34772 (NORAD 65020). STARLINK-34772 can be tracked NOW for your location showing map with azimuth and elevation plus other details from your city location.







IsCatalogInMostPopularTable: catalog: 65020, numindb: 4
Update: records affected: 1



GetName: 65020 STARLINK-34772

Hit Count: updated at: Mon, 09 Feb 2026 07:34:52 GMT